Wind_Speed
50 52 54 55 57 58 60 60 61 61 62 63 63 64 65 66 67 68 69 70 72 73 75 76 78 79 81 82 84 85 87 89 91 93 95 97 98 99 99 98 97 94 90 87 83 79 75 72 70 68 67 67 68 68 68 67 66 65 62 60 57 54 52 49 47 44 43 41 40 38 37 36 35 34 33 32 32 31 31 30 30 29 29 28 28 28
51 53 55 56 57 59 60 61 61 61 61 62 63 64 65 66 67 68 70 71 72 74 75 77 79 80 82 83 85 86 88 90 92 94 96 98 99 99 98 96 93 90 86 82 78 75 72 69 68 67 67 68 68 67 67 65 63 61 59 56 53 50 47 44 42 40 38 37 35 34 33 32 31 30 29 29 28 28 27 27 27 26 26 26 25 25
52 54 56 57 58 58 59 60 61 61 61 62 63 64 65 66 67 69 70 72 73 75 76 78 80 81 83 85 86 88 89 91 93 95 97 98 98 97 95 93 89 86 82 78 74 71 69 67 67 67 67 67 67 65 64 62 59 57 54 51 48 45 42 40 37 36 34 32 31 30 29 28 27 27 27 26 26 26 26 26 26 26 26 26 26 25
53 55 56 57 58 58 58 59 60 61 61 62 63 64 65 67 68 69 71 72 74 76 77 79 80 82 84 86 87 89 91 93 95 96 97 98 97 95 92 89 85 81 77 74 71 68 67 67 67 67 66 65 64 62 60 58 55 52 49 46 43 40 37 35 33 31 30 29 27 27 26 26 25 25 26 26 26 26 27 27 27 27 27 27 27 27
53 55 56 57 58 58 58 59 59 60 61 62 63 64 65 67 69 70 72 73 75 77 78 80 81 83 85 87 88 90 92 94 96 97 97 96 95 92 89 85 81 77 73 70 68 67 66 66 66 65 64 63 61 59 56 53 51 48 44 41 38 36 33 31 29 28 27 26 25 25 25 25 25 25 26 26 27 27 28 28 28 29 29 29 29 29
54 55 56 56 57 57 58 59 59 60 62 63 64 64 66 67 69 71 73 74 76 78 79 81 83 84 86 87 89 91 93 95 96 96 96 94 92 88 85 81 77 73 70 67 66 65 65 65 64 63 61 59 57 54 52 49 46 43 40 37 34 32 30 28 26 25 24 24 24 24 24 25 25 26 27 27 28 28 29 29 29 30 30 30 30 30
55 55 55 56 56 57 58 58 59 60 61 63 64 66 67 68 70 71 73 74 76 78 80 82 84 85 87 88 90 92 94 95 96 95 94 91 88 84 81 77 73 70 67 66 65 64 64 63 61 59 57 55 53 50 48 44 41 38 35 33 30 28 26 25 24 23 23 23 23 24 24 25 26 27 27 28 29 29 29 30 30 30 30 30 30 30
54 55 55 55 56 57 58 59 59 60 61 63 64 66 68 70 71 72 74 75 76 78 80 83 85 87 88 90 91 93 95 95 95 94 91 88 85 81 77 73 70 67 65 64 63 63 62 60 58 56 53 51 49 46 43 40 37 34 32 29 27 26 24 23 22 22 22 22 23 24 25 26 27 28 28 29 30 30 31 31 31 31 32 31 31 31
54 54 55 55 56 57 58 60 61 61 62 63 65 66 68 70 72 74 75 76 77 79 81 83 85 87 90 92 93 94 95 95 93 91 88 84 81 77 73 70 67 65 64 63 62 61 59 56 54 52 50 47 45 42 39 36 34 31 29 27 25 24 23 22 21 21 22 22 23 25 26 27 28 29 30 30 31 32 32 33 33 33 33 33 33 32
53 54 55 56 56 57 58 59 61 62 63 64 65 67 68 70 72 74 76 78 79 80 81 83 85 87 90 93 94 95 94 93 91 88 84 80 77 73 69 66 64 63 62 61 59 57 55 53 50 48 46 44 41 39 36 33 31 29 27 25 24 22 21 21 21 21 22 23 24 25 27 28 29 30 31 32 33 33 34 34 34 34 35 35 34 34
53 54 54 55 57 58 58 59 61 62 63 65 66 68 69 70 71 73 76 78 80 82 83 85 86 88 90 92 95 95 94 92 89 85 81 78 74 70 66 64 62 61 60 58 56 54 51 49 47 45 43 41 38 35 33 31 29 27 25 24 23 22 21 21 21 22 23 24 25 26 28 29 31 32 33 33 34 34 35 35 35 35 36 36 36 36
53 54 55 55 57 58 59 60 61 62 64 65 67 69 70 72 73 74 76 78 80 82 84 86 88 89 91 92 93 93 92 89 85 81 77 74 70 67 64 62 61 59 58 56 53 50 48 46 44 42 40 38 35 33 31 29 27 26 25 23 22 22 22 22 22 23 24 25 27 28 29 31 32 33 34 35 35 35 35 35 35 36 36 36 36 36
53 54 54 55 56 57 59 60 62 63 64 65 67 69 71 72 74 75 77 78 80 82 84 87 89 91 92 93 92 91 89 86 82 77 73 70 66 63 61 60 59 58 55 53 50 47 45 44 42 40 38 35 33 31 29 28 27 25 24 23 23 23 23 23 24 24 26 27 28 30 31 32 33 34 35 36 36 36 36 36 36 36 36 36 36 36
53 54 55 56 56 58 59 60 62 64 65 66 67 69 71 73 74 76 77 79 81 83 85 87 90 91 92 92 91 89 86 83 79 74 70 66 63 60 59 58 57 55 52 49 47 45 43 41 40 38 36 34 32 30 29 27 26 25 24 24 24 24 24 25 25 26 28 29 30 31 32 33 34 35 36 36 36 36 36 36 36 36 36 36 36 36
53 54 55 56 57 58 59 61 62 64 66 67 68 70 72 73 75 77 78 80 82 84 86 88 90 92 92 91 89 86 82 79 75 70 66 63 61 58 57 56 55 52 49 46 44 42 41 39 38 36 34 32 31 29 28 27 26 26 25 25 25 25 26 26 27 28 30 31 32 33 34 35 35 36 36 37 37 37 37 37 37 36 36 36 36 36
53 53 54 56 57 58 60 61 63 65 66 68 69 71 72 74 76 77 79 81 83 85 87 88 90 92 92 92 88 83 78 74 71 67 63 60 59 57 55 53 52 49 46 43 41 40 39 38 36 35 33 31 30 29 28 27 27 26 26 26 26 27 27 28 29 30 31 32 33 34 35 35 36 36 37 37 37 37 37 37 37 37 37 37 37 36
53 53 54 56 57 58 60 62 63 65 67 68 70 71 73 74 76 78 80 81 83 85 87 89 89 89 89 89 87 82 75 71 67 64 60 58 57 55 53 51 48 46 43 41 40 39 38 37 35 34 32 31 30 29 28 27 27 27 27 27 27 28 29 30 30 31 32 33 34 35 35 36 36 36 37 37 37 37 37 37 37 37 37 37 37 37
53 53 55 56 57 59 60 62 64 66 68 69 71 72 74 75 77 79 80 82 84 86 88 89 89 88 86 84 82 79 73 67 64 61 58 56 55 54 51 48 45 42 40 39 38 37 37 35 34 33 32 31 30 29 28 28 28 28 28 28 29 29 30 31 32 32 33 34 35 35 36 36 36 36 37 37 37 37 37 37 38 38 38 38 38 38
53 54 55 56 58 60 61 63 64 66 68 70 71 73 75 77 78 80 82 83 85 87 88 89 89 88 85 81 78 75 70 64 60 58 56 54 53 52 49 46 43 41 39 37 37 36 36 34 33 32 31 31 30 29 29 29 28 29 29 29 30 31 31 32 32 33 34 34 35 35 36 36 36 37 37 37 37 38 38 38 39 39 39 39 39 38
53 54 55 56 58 60 62 63 65 67 68 70 72 73 75 77 79 81 83 84 86 87 88 88 87 86 83 80 76 72 67 62 58 56 54 53 51 49 46 43 41 39 37 36 36 35 34 34 33 32 31 31 30 30 30 29 29 29 30 30 31 31 32 33 33 34 34 35 35 36 36 37 37 37 37 38 38 39 39 40 40 40 40 40 39 39
54 55 56 57 58 60 62 64 66 67 69 71 72 74 76 78 80 82 84 85 87 88 88 88 86 84 81 77 73 68 64 59 56 54 53 52 50 47 44 41 38 37 36 36 35 34 34 33 32 32 31 31 31 30 30 30 30 30 31 31 32 32 33 33 34 35 35 36 36 37 37 37 38 38 39 39 40 40 41 41 41 41 41 40 40 39
54 55 57 58 59 60 62 64 66 68 70 71 73 75 77 79 81 83 84 86 87 88 87 86 85 82 78 74 69 65 60 55 53 52 51 50 48 45 42 39 37 35 35 35 35 34 33 32 32 32 31 31 31 30 30 30 31 31 32 32 33 33 34 34 35 36 36 37 37 38 38 39 39 40 40 40 41 41 42 42 42 42 41 41 40 39
54 56 57 58 60 61 63 65 67 69 70 72 73 75 77 79 81 82 84 86 87 87 87 86 84 81 77 72 67 62 57 53 51 50 49 48 45 42 40 38 36 35 34 34 34 33 33 32 32 31 31 31 31 31 31 31 31 32 32 33 34 34 35 36 36 37 37 38 39 39 40 41 41 41 42 42 42 42 42 42 42 42 41 40 39 38
54 56 57 59 60 62 64 66 67 69 71 73 74 76 78 79 81 83 84 86 86 87 87 86 83 80 75 70 64 59 55 51 50 49 48 46 43 40 38 36 35 34 34 33 33 33 32 32 31 31 31 31 31 31 31 32 32 33 33 34 35 35 36 37 37 38 39 39 40 41 42 42 43 43 43 43 43 43 42 42 42 41 40 39 38 37
55 56 58 59 61 63 64 66 68 70 72 73 75 77 79 80 83 84 86 86 87 87 86 84 80 75 71 66 61 57 53 51 49 48 46 45 42 39 36 35 34 33 33 33 33 32 32 31 31 31 31 31 31 32 32 33 33 34 34 35 36 36 37 38 38 39 40 41 42 43 43 44 44 45 44 44 43 43 42 42 41 40 39 38 37 37
55 56 58 60 62 63 65 67 69 70 72 74 75 77 79 81 83 85 86 86 86 85 84 81 77 73 68 62 57 54 52 50 49 47 45 43 40 38 36 34 33 33 33 33 32 32 31 31 31 31 32 32 32 32 33 33 34 35 35 36 37 37 38 39 39 40 41 42 43 44 45 45 46 46 46 45 44 43 42 41 40 39 38 37 36 36
55 57 59 61 62 64 66 68 69 71 72 74 76 78 80 82 84 85 86 86 85 84 81 78 74 70 66 60 55 52 50 50 49 47 45 42 38 36 34 34 33 33 32 32 32 31 31 31 31 31 32 32 32 33 33 34 35 35 36 37 37 38 39 40 40 41 42 43 44 45 46 46 47 47 46 46 45 43 42 40 39 38 37 36 35 35
56 57 59 61 63 65 66 68 70 71 73 75 76 78 80 82 84 85 85 85 85 83 80 75 71 66 61 56 52 50 49 48 48 46 44 41 37 34 33 33 32 32 32 32 31 31 31 31 31 31 32 32 32 33 34 34 35 36 37 38 39 40 40 41 42 43 43 44 45 46 46 47 47 47 47 46 45 44 42 40 38 37 36 35 35 35
56 58 60 62 63 65 67 69 70 72 73 75 77 79 81 83 84 84 85 85 84 81 78 74 68 62 57 54 51 50 49 47 46 45 44 40 36 34 33 32 32 32 32 32 32 32 31 31 31 32 32 32 33 33 34 35 36 37 38 39 40 41 42 43 43 44 45 46 46 47 47 48 48 48 48 47 46 44 42 39 37 36 35 35 35 34
57 59 61 62 64 66 67 69 70 72 73 75 77 79 81 83 84 84 85 84 82 79 75 71 66 60 55 52 50 50 50 48 46 44 42 39 36 34 33 32 32 32 32 32 33 33 33 32 32 33 33 33 34 34 35 36 37 38 39 40 41 42 43 44 45 45 46 47 47 48 48 48 49 48 48 47 46 44 41 39 37 35 35 34 34 34
57 59 61 63 65 66 68 69 70 72 74 75 77 79 82 83 84 85 84 83 80 76 73 68 63 57 52 48 47 48 49 49 47 44 41 38 35 33 33 32 32 32 32 32 32 32 33 33 33 34 34 35 35 36 37 37 38 39 40 41 42 44 44 45 46 46 47 48 48 49 49 49 49 49 48 47 46 44 41 39 37 35 35 34 34 34
58 60 61 63 65 66 68 69 71 72 74 76 78 80 82 83 84 84 83 81 78 74 70 65 60 56 51 47 46 46 47 47 46 44 41 37 35 33 32 32 32 32 32 32 32 32 32 33 33 34 35 36 37 38 38 39 40 41 42 43 44 45 45 46 47 47 48 48 49 49 49 50 50 49 49 47 46 43 41 39 37 35 35 34 34 33
58 60 62 63 65 67 68 69 71 72 74 76 78 80 82 83 84 83 82 80 76 72 67 62 58 54 51 48 47 47 46 46 45 43 40 37 35 33 33 32 32 33 33 33 33 33 33 33 34 34 35 36 38 39 40 40 41 42 43 44 45 45 46 47 47 48 48 49 49 49 49 49 49 49 48 47 45 43 40 38 36 35 35 34 33 32
59 60 62 64 65 67 68 70 71 73 74 76 78 80 82 83 83 83 81 78 74 69 64 58 54 51 49 48 48 48 48 46 44 42 39 36 34 33 32 32 33 33 33 34 34 34 34 34 35 35 36 37 38 39 40 42 42 43 44 45 46 46 47 47 48 48 48 49 49 49 49 48 48 48 47 46 44 41 39 37 36 35 34 34 33 32
59 61 63 64 66 67 69 70 72 73 75 77 79 80 82 83 83 82 80 77 73 68 62 56 51 47 46 46 47 48 48 47 45 42 39 36 34 33 33 32 33 33 34 34 34 35 35 35 36 36 37 37 38 40 41 42 43 44 45 46 47 47 48 48 48 48 48 48 48 48 48 48 47 47 46 44 42 40 38 36 35 35 34 34 33 31
59 61 63 64 66 67 69 71 72 74 75 77 79 81 82 83 83 81 79 75 71 66 60 54 49 46 45 45 46 47 47 46 44 41 38 36 34 33 32 32 33 33 34 34 35 35 36 36 36 37 38 38 39 40 41 42 43 44 45 46 47 47 48 48 48 48 48 48 48 48 47 47 47 46 45 43 41 39 37 35 34 34 34 33 32 30
60 61 63 65 66 68 69 71 72 74 76 78 80 81 83 83 82 80 78 74 69 64 58 53 48 45 45 45 46 47 46 45 44 41 38 36 34 33 32 33 33 34 34 35 36 36 36 37 37 38 39 39 40 41 42 43 43 44 45 45 46 46 47 47 47 47 48 48 47 47 47 47 46 45 44 42 39 37 36 34 34 33 33 33 32 30
60 62 63 65 66 68 69 71 73 75 76 78 80 82 83 83 81 79 76 72 68 62 57 51 46 44 44 45 46 47 46 45 43 40 38 36 34 33 33 33 33 34 35 35 36 37 37 38 38 39 39 40 41 41 42 43 43 43 44 44 45 45 46 47 47 47 47 47 47 47 47 46 46 45 43 40 38 36 35 34 33 33 32 32 31 29
60 62 64 65 67 68 70 72 73 75 77 79 81 82 82 82 81 78 75 71 66 60 55 49 44 42 43 44 46 46 45 44 42 39 37 35 34 33 33 33 34 35 35 36 37 38 38 39 39 40 40 40 41 41 42 43 43 43 43 44 44 45 46 46 47 47 47 47 47 47 46 46 45 44 42 39 37 35 34 33 32 32 31 31 30 29
61 62 64 66 67 69 70 72 74 76 78 80 81 83 83 82 80 78 74 70 64 59 53 47 43 41 42 43 44 45 44 42 40 38 36 35 34 33 33 33 34 35 36 37 37 38 39 39 39 40 40 40 41 41 42 43 43 43 44 44 44 45 46 47 47 48 47 47 47 46 45 45 44 43 41 39 37 35 34 33 32 31 30 29 28 27
61 63 64 66 68 69 71 72 74 76 78 80 82 82 82 81 79 77 73 69 64 58 52 47 43 42 42 43 43 43 43 41 39 37 35 34 33 33 33 33 34 35 35 36 37 38 38 39 39 40 40 41 41 42 42 43 43 44 44 44 45 45 46 47 47 47 47 46 46 45 45 44 43 42 40 39 37 36 34 33 32 31 29 28 26 25
61 63 65 66 68 70 71 73 74 76 78 80 81 81 81 79 77 74 71 67 62 57 51 46 43 42 43 44 44 43 42 40 38 36 35 33 32 32 32 33 33 34 35 36 37 37 38 39 39 40 40 41 41 42 43 43 44 45 45 45 45 46 46 46 46 46 46 45 45 44 43 43 42 41 40 38 37 36 34 33 32 30 28 26 25 23
62 63 65 67 68 70 71 73 75 76 78 80 81 81 80 79 76 73 69 64 59 54 49 45 43 42 43 44 44 43 42 39 37 36 34 33 32 32 32 33 33 34 35 36 37 37 38 39 39 40 41 42 42 43 43 44 44 45 45 45 45 45 44 44 45 45 44 44 44 43 42 42 41 40 39 38 37 36 34 33 31 29 27 25 23 21
62 64 65 67 68 70 71 73 75 77 78 79 80 80 80 78 75 72 67 63 58 52 47 44 43 43 43 44 44 43 41 39 37 35 34 33 33 32 33 33 34 34 35 36 37 38 39 39 40 41 42 43 43 44 44 44 44 44 44 44 43 43 42 43 43 43 43 43 43 42 42 41 40 39 39 38 37 35 34 32 30 28 25 23 21 20
62 64 65 67 68 70 72 73 75 77 78 79 80 80 79 77 74 70 66 61 56 51 46 43 42 43 44 45 44 43 41 39 37 35 34 33 33 33 34 34 35 35 36 37 38 38 39 40 41 42 43 44 45 45 45 44 44 42 41 41 41 41 41 42 42 42 42 42 42 41 40 40 39 39 38 37 36 34 32 30 28 26 24 22 21 19
62 64 66 67 69 70 72 73 75 77 78 79 80 79 78 76 73 69 64 59 54 49 45 42 42 42 43 44 44 43 41 39 37 36 35 34 34 34 34 35 36 36 37 38 39 39 40 41 42 43 44 45 45 45 45 44 42 40 39 38 38 38 39 40 41 42 42 41 41 40 39 39 38 37 36 35 34 33 31 29 27 25 23 22 20 19
63 64 66 67 69 71 72 74 75 77 78 79 80 79 77 75 72 68 63 58 52 47 44 42 41 42 43 43 43 42 40 39 37 36 35 35 35 35 35 36 36 37 38 39 40 40 42 42 43 44 45 45 45 45 44 42 40 38 36 36 36 36 37 38 40 41 41 40 40 39 39 38 37 36 34 33 32 31 30 28 26 25 24 22 21 19
63 65 66 68 69 71 72 74 76 77 78 79 79 79 77 74 71 67 62 57 51 46 43 41 41 42 43 43 42 41 39 38 37 36 35 35 35 35 36 36 37 38 38 39 40 41 42 43 44 45 46 46 45 44 42 40 37 35 34 34 34 35 36 37 39 39 40 39 39 38 38 37 36 34 32 31 30 29 28 27 26 25 24 23 22 20
63 65 66 68 69 71 73 74 76 77 78 79 79 78 76 73 69 65 60 55 50 45 41 40 41 41 42 42 41 40 39 37 36 35 35 35 35 35 35 36 37 37 38 39 40 41 42 43 45 45 46 46 45 43 41 38 35 34 33 33 34 35 35 37 38 38 38 38 38 38 38 37 35 32 30 29 29 28 28 27 26 26 25 24 23 22
63 65 67 68 69 71 73 74 76 77 78 79 78 77 75 73 69 64 59 54 48 43 40 39 40 41 41 41 41 39 38 37 36 35 34 34 34 35 35 35 36 37 38 39 39 41 42 43 45 46 46 46 45 43 40 37 34 32 32 33 34 35 35 36 37 37 37 37 37 37 37 36 33 31 29 28 27 27 27 27 26 26 25 24 23 22
64 65 67 68 70 71 73 74 76 77 78 79 78 77 74 71 68 63 58 53 47 43 40 38 39 40 40 41 40 39 37 36 35 34 34 34 34 34 35 35 36 36 37 38 39 40 41 42 43 45 46 45 44 42 40 36 34 32 32 33 34 35 35 36 36 36 36 37 37 37 36 34 31 29 27 26 26 27 27 27 26 25 25 24 23 22
Wind_Direction
312 313 313 313 314 314 314 315 315 316 317 317 318 318 319 319 319 319 320 320 320 320 320 321 321 321 321 321 322 322 322 322 322 322 322 322 322 322 321 321 320 320 320 319 319 319 319 319 319 319 319 319 319 318 318 318 318 318 318 319 319 319 319 320 320 320 320 320 320 320 320 320 320 320 321 321 321 321 322 322 323 323 323 323 322 322
313 313 314 314 314 315 315 316 316 317 318 318 319 319 319 320 320 320 320 320 321 321 321 321 321 322 322 322 322 322 323 323 323 323 323 323 323 322 322 321 321 320 320 320 320 320 320 320 320 320 320 320 319 319 319 319 320 320 320 321 321 322 322 323 323 324 324 325 325 326 326 327 328 328 329 330 331 331 332 332 333 333 333 333 333 332
314 314 314 314 315 315 316 317 317 318 318 319 319 320 320 320 320 321 321 321 321 321 322 322 322 322 322 322 323 323 323 324 324 324 324 323 323 322 322 322 321 321 321 321 321 321 321 321 321 321 321 321 320 320 321 321 321 322 322 323 324 324 325 327 328 329 330 331 332 333 334 335 336 337 338 339 340 340 340 340 340 340 339 339 338 337
314 314 314 315 316 316 317 317 318 318 319 319 320 320 320 321 321 321 321 322 322 322 322 322 322 323 323 323 324 324 324 325 325 324 324 324 323 323 322 322 322 322 321 322 322 322 322 322 322 322 322 322 322 322 322 323 323 324 324 325 327 328 330 331 333 334 336 337 338 340 341 343 344 345 345 345 345 345 344 343 343 342 341 340 339 338
314 315 315 316 316 317 317 318 318 319 319 320 320 321 321 321 322 322 322 322 322 322 323 323 323 323 323 324 324 325 325 325 325 325 324 324 324 323 323 323 322 322 322 322 323 323 323 323 323 323 323 323 323 323 324 324 325 326 327 329 331 333 334 337 338 340 342 344 345 346 347 348 349 348 348 348 347 346 345 344 343 342 340 339 338 337
314 315 315 316 317 317 318 319 319 320 320 321 321 321 322 322 322 322 323 323 323 323 323 323 323 324 324 324 325 325 326 326 326 325 325 325 324 324 323 323 323 323 323 323 324 324 324 324 324 324 324 324 324 325 326 327 328 329 331 333 335 337 339 341 344 345 347 349 350 350 351 351 350 349 348 348 347 345 344 343 342 341 340 338 337 336
315 315 316 317 317 318 318 319 320 320 321 321 322 322 322 322 323 323 323 323 323 323 324 324 324 324 325 325 326 326 326 326 326 326 325 325 325 324 324 324 324 324 324 324 324 324 324 324 325 325 325 326 326 327 328 329 331 333 335 337 339 342 344 346 348 349 351 351 352 351 351 350 349 348 348 347 346 345 343 342 341 340 339 338 337 335
315 316 317 318 318 319 319 320 320 321 321 322 322 323 323 323 323 323 324 324 324 324 324 324 324 325 326 326 327 327 327 327 327 326 326 325 325 325 324 324 325 325 325 325 325 325 325 325 326 326 327 328 328 329 331 332 334 336 339 341 343 345 347 349 350 351 351 351 351 350 349 348 348 347 346 345 344 343 342 341 340 339 338 337 336 335
316 317 318 319 319 320 320 320 321 322 322 323 323 323 324 324 324 324 324 324 324 324 325 325 325 326 326 327 328 328 328 328 327 327 326 326 325 325 325 325 325 326 326 326 326 326 326 327 327 328 329 330 331 332 334 336 338 340 342 344 346 347 349 349 350 350 349 349 348 347 346 346 345 344 343 343 342 341 341 340 339 338 338 337 336 335
317 318 319 319 320 320 321 321 322 322 323 323 324 324 324 324 324 324 324 324 324 325 325 326 326 327 327 328 328 329 329 328 328 327 327 326 326 326 326 326 326 326 327 327 327 327 328 328 329 330 331 332 333 335 337 339 341 343 345 347 347 348 348 348 347 347 346 345 344 344 343 342 342 341 340 340 339 339 339 338 338 337 337 337 336 335
318 319 320 320 321 321 322 322 322 323 323 324 324 324 324 324 324 324 324 325 325 326 326 327 327 328 329 329 329 329 329 329 328 328 327 327 326 326 327 327 327 327 327 327 328 328 329 330 331 332 333 334 336 338 340 342 344 346 347 347 347 347 346 345 344 342 342 341 341 340 340 339 339 338 338 337 337 337 337 337 337 336 336 336 335 335
319 320 321 321 321 322 322 323 323 323 324 324 324 324 324 324 325 325 325 325 326 327 327 328 328 329 330 330 330 330 330 329 329 328 328 327 327 327 328 328 328 328 328 328 329 330 331 332 332 333 335 336 338 340 342 344 346 347 347 347 346 345 343 341 340 339 338 338 338 338 337 337 336 336 335 335 335 335 335 335 335 335 335 335 334 334
320 321 321 322 322 323 323 323 323 324 324 324 325 325 325 325 325 325 326 326 327 328 329 329 329 330 330 331 331 331 330 330 329 328 328 327 327 328 328 328 328 328 329 329 330 331 332 333 334 335 337 338 340 342 344 345 346 347 346 345 344 342 340 338 337 336 336 336 336 335 335 335 334 333 333 332 332 333 333 333 333 333 333 333 332 332
321 321 322 322 323 323 323 323 324 324 324 325 325 325 325 325 325 326 327 327 328 329 330 330 331 331 331 331 332 331 331 330 329 329 328 328 328 328 329 329 328 329 330 331 331 332 333 335 335 337 338 340 341 343 344 346 346 346 345 343 341 339 337 336 335 335 335 335 334 334 333 332 332 331 331 330 330 331 331 331 332 332 331 331 331 330
321 322 322 323 323 323 324 324 324 324 324 325 325 325 325 326 326 327 328 329 329 330 331 332 332 332 332 332 332 332 331 330 329 329 328 328 328 329 329 329 329 329 330 332 333 333 334 335 336 337 339 340 342 343 344 345 345 344 343 341 339 337 336 335 335 335 334 334 333 333 332 331 330 329 329 329 329 329 329 330 330 330 329 329 329 328
322 322 323 323 324 324 324 324 324 324 325 325 325 326 326 327 327 328 329 330 331 331 332 333 333 333 333 333 332 332 331 331 330 329 329 328 329 329 330 330 330 330 331 332 333 334 335 336 337 338 339 341 342 343 344 344 344 342 341 339 338 336 335 335 335 334 334 333 332 331 330 329 328 328 328 327 328 328 328 328 328 328 327 327 327 326
322 323 323 324 324 324 324 324 325 325 325 326 326 326 327 328 328 329 330 331 332 332 333 333 334 334 334 333 332 332 331 331 330 329 329 329 329 330 331 331 331 331 332 333 334 335 336 337 338 339 340 341 342 343 343 343 342 341 339 338 337 336 335 335 335 334 333 332 331 330 329 328 327 327 327 327 327 327 327 327 327 326 326 326 325 325
323 323 324 324 324 324 325 325 325 326 326 326 327 327 328 329 329 330 331 332 333 333 334 334 334 334 334 333 332 331 331 330 330 329 329 330 330 330 331 331 331 331 332 333 334 335 336 337 338 339 340 341 342 342 342 342 341 339 338 337 336 336 335 335 334 333 332 331 330 329 328 327 326 326 326 326 326 326 327 326 326 326 326 325 324 324
323 323 324 324 325 325 325 326 326 326 327 327 328 328 329 330 331 331 332 333 334 334 335 335 335 335 334 334 332 332 331 331 330 330 330 330 331 331 331 332 332 332 333 334 335 336 337 337 338 339 340 341 341 341 341 340 339 338 337 336 336 335 335 334 334 333 332 330 329 328 327 326 326 326 326 326 326 326 327 327 327 326 326 325 324 323
323 324 324 325 325 326 326 326 327 327 328 328 328 329 330 331 332 333 333 334 334 335 335 336 336 335 335 334 333 332 331 331 331 331 331 331 331 331 332 332 332 332 333 334 335 336 337 337 338 339 339 340 341 340 340 339 338 337 336 336 335 335 334 334 333 332 330 329 328 327 326 326 326 326 326 326 327 327 328 328 328 327 326 325 324 323
324 324 325 325 326 326 327 327 327 328 328 329 330 330 331 332 333 334 334 335 335 336 336 336 336 336 335 334 333 332 331 331 332 332 332 332 331 332 332 332 332 333 333 334 335 336 337 337 338 338 339 340 340 339 339 338 337 336 335 335 334 334 334 333 332 331 329 328 327 326 326 326 326 326 327 327 328 329 329 329 328 328 327 326 324 323
324 325 325 326 327 327 327 328 328 329 329 330 331 332 333 333 334 335 335 336 336 337 337 337 337 336 335 334 333 332 332 332 332 332 332 332 332 332 332 332 332 333 334 334 335 336 336 337 338 338 339 339 339 338 337 336 335 335 334 334 334 333 333 332 331 330 329 328 327 326 326 326 326 327 328 329 329 330 330 329 329 328 327 326 324 322
325 325 326 327 327 328 328 329 329 330 331 331 332 333 333 334 335 336 336 337 337 337 337 337 337 336 336 335 334 333 332 333 334 334 333 332 332 332 332 333 333 333 334 335 335 336 336 337 337 338 338 338 337 337 336 335 334 334 334 334 333 333 332 331 330 329 328 327 327 327 326 327 327 328 328 329 330 330 330 330 329 328 327 326 324 322
325 326 327 328 328 329 329 330 330 331 332 332 333 334 334 335 336 336 337 337 338 338 338 338 337 337 336 335 334 333 333 334 335 335 334 333 332 332 332 333 333 333 334 335 335 336 336 337 337 337 337 337 336 336 335 335 334 334 334 333 333 332 331 331 330 329 328 328 327 327 327 327 328 328 329 330 330 331 331 330 329 328 327 326 324 322
326 327 328 328 329 330 330 331 332 332 333 333 334 334 335 336 336 337 337 338 338 339 338 338 337 337 336 335 334 334 334 335 335 335 334 333 332 332 332 333 333 333 334 335 335 336 336 336 336 336 336 336 335 335 335 334 334 334 333 333 332 331 331 330 329 329 328 328 328 328 328 328 328 329 329 330 331 331 331 330 330 329 327 326 324 322
327 328 329 329 330 331 331 332 333 333 334 334 335 335 336 337 337 337 338 339 339 339 339 339 338 337 336 335 335 335 335 335 335 335 335 334 333 332 332 333 333 334 334 335 336 336 336 336 336 336 336 335 335 335 335 334 334 334 333 332 332 331 330 330 330 329 329 329 328 328 328 328 328 329 329 330 331 331 331 331 330 329 328 326 324 322
329 329 330 330 331 332 332 333 334 334 334 335 336 336 337 338 338 338 339 340 340 340 340 339 338 337 336 335 335 335 335 336 336 336 335 334 333 332 332 332 333 334 334 334 335 336 336 336 335 335 335 336 336 335 335 334 334 333 332 332 331 331 330 330 330 330 329 329 329 328 328 328 328 329 329 330 330 331 331 331 331 330 328 326 324 322
330 330 331 331 332 333 333 334 334 335 335 336 337 337 338 339 339 340 340 340 340 340 340 339 338 337 336 335 335 335 336 336 336 336 335 334 333 332 332 332 332 333 334 334 335 336 336 336 336 336 336 336 336 335 335 334 333 332 332 331 331 331 331 331 330 330 329 329 329 328 328 328 328 328 329 329 330 331 332 332 331 330 328 326 324 322
331 331 332 332 333 334 334 335 335 336 336 337 337 338 339 340 340 341 341 341 341 341 340 339 338 337 336 335 335 335 336 337 337 336 335 334 332 332 332 332 333 333 334 335 335 335 336 337 337 336 336 336 336 335 334 333 333 332 332 332 331 331 331 331 331 330 330 329 329 328 328 328 328 328 328 328 329 331 332 332 332 330 328 326 325 323
332 332 333 334 334 335 335 336 336 336 337 337 338 339 340 341 341 342 342 342 341 341 340 339 338 337 336 336 336 336 336 337 337 336 335 334 332 332 332 332 333 334 335 335 336 336 336 337 337 337 337 336 336 335 334 334 333 333 332 332 332 331 331 331 331 330 330 329 329 328 328 328 328 327 327 328 329 330 332 332 332 330 329 327 325 324
332 333 334 335 335 335 336 336 337 337 338 338 339 340 340 341 342 343 343 342 342 341 340 339 338 337 336 336 336 337 337 337 336 336 335 333 332 331 332 332 332 333 334 335 336 336 336 336 337 337 337 336 336 335 335 334 333 333 332 332 332 331 331 331 330 330 329 329 329 328 328 327 327 327 327 328 329 331 332 332 332 330 329 327 326 325
333 334 335 335 336 336 336 337 337 338 338 339 339 340 341 342 343 343 343 343 342 341 340 339 338 337 336 336 337 337 337 337 336 336 335 333 332 331 331 331 332 333 334 335 336 336 336 336 336 336 336 336 335 335 334 334 333 333 332 332 332 331 331 331 330 330 329 329 328 328 327 327 326 326 327 328 329 331 332 332 332 330 329 328 327 326
334 334 335 336 336 336 337 337 338 338 339 339 340 341 342 343 344 344 344 344 343 342 340 339 338 337 336 336 337 338 338 338 337 336 335 333 331 331 331 331 332 333 333 334 335 336 336 337 337 336 335 335 334 334 333 333 332 332 332 331 331 331 331 330 330 329 329 328 327 327 326 326 325 326 326 328 330 331 332 332 332 330 329 328 327 327
334 335 336 336 337 337 337 338 338 339 339 340 341 342 343 344 344 345 345 344 343 342 341 339 338 337 336 336 337 338 338 338 338 337 335 333 331 330 330 331 332 333 333 334 335 336 336 336 336 335 335 334 333 332 332 332 331 331 331 331 331 331 330 330 329 329 328 327 326 326 325 325 325 325 327 329 331 332 333 333 332 330 329 328 328 327
335 336 336 337 337 337 338 338 339 339 340 341 342 343 344 344 345 345 345 345 344 342 341 339 337 337 336 337 337 338 338 338 338 337 335 333 332 330 330 331 332 332 333 334 334 335 335 335 335 334 334 333 332 331 331 331 331 331 331 331 331 330 330 329 328 328 327 326 325 325 325 325 325 326 328 330 332 333 333 333 332 330 329 328 328 328
336 336 337 337 338 338 338 339 339 340 340 341 342 343 344 345 346 346 346 345 344 343 341 339 337 336 337 337 338 338 338 338 338 337 335 334 332 331 330 331 332 332 333 333 333 333 333 333 333 333 333 332 331 331 331 331 331 331 331 331 331 330 329 328 327 327 326 326 325 325 325 325 326 328 330 332 333 334 334 333 332 331 329 328 328 328
336 337 337 337 338 338 338 339 340 340 341 342 343 344 345 346 347 347 346 346 344 343 341 340 338 337 337 337 338 338 338 338 338 337 336 334 333 331 330 331 332 332 333 333 333 333 333 333 333 332 332 332 331 331 331 331 331 331 331 331 330 329 328 327 327 326 326 326 326 326 326 327 328 330 332 334 335 335 335 334 332 331 329 328 327 327
337 337 337 338 338 338 339 339 340 341 342 343 344 345 346 347 347 347 347 346 345 343 342 340 338 337 337 338 338 339 339 339 338 337 336 335 333 332 331 331 332 333 333 333 333 333 333 333 333 332 332 332 331 331 331 331 332 332 332 331 330 329 328 328 327 327 327 327 327 327 327 328 330 332 334 335 336 336 335 334 332 330 329 328 327 326
337 337 337 338 338 339 340 340 341 342 343 344 345 346 347 347 348 347 347 346 345 343 341 340 338 337 338 338 339 339 339 339 338 337 336 335 334 333 332 332 332 333 333 333 333 333 333 333 333 333 332 332 331 331 332 332 332 332 332 332 331 330 329 329 329 329 329 329 328 328 329 330 331 333 335 336 337 336 335 333 331 329 328 327 326 325
337 337 338 338 339 340 340 341 342 343 344 345 346 347 348 348 348 348 347 346 344 343 341 340 338 338 338 339 339 339 339 339 338 338 337 336 335 334 333 333 332 333 333 333 333 333 333 333 333 333 332 332 332 332 333 333 334 333 333 333 332 332 332 331 331 330 330 329 329 329 330 331 333 335 336 337 337 336 334 332 330 328 327 325 324 323
337 338 338 339 339 340 341 342 343 344 345 346 347 348 348 348 348 348 347 346 344 343 341 340 339 338 339 339 340 340 340 340 339 338 338 336 336 335 334 333 333 333 332 332 332 332 332 332 332 333 333 333 334 334 335 335 335 335 335 335 335 334 334 333 332 331 330 329 329 330 331 333 334 336 337 337 336 335 333 331 329 327 326 325 323 322
337 338 339 339 340 341 342 342 343 344 345 347 347 348 349 349 348 347 346 345 344 342 341 340 339 339 339 340 340 341 341 340 340 339 339 338 337 336 335 334 334 333 333 332 332 332 333 333 333 334 335 335 336 336 337 337 337 337 336 336 336 336 335 334 332 331 330 329 330 331 333 334 336 337 337 337 336 335 333 331 329 328 327 325 324 322
338 339 339 340 341 342 342 343 344 345 346 347 348 349 349 349 348 348 346 345 343 342 340 339 339 339 340 340 341 341 341 341 341 340 340 339 338 338 337 336 336 335 335 334 334 334 335 335 335 336 337 337 338 338 339 339 339 339 338 337 337 336 335 333 332 330 330 330 331 333 335 336 337 338 337 337 336 335 333 332 331 330 329 328 326 324
338 339 340 341 341 342 342 343 344 346 347 348 348 349 349 349 349 348 346 345 343 341 340 339 339 339 340 341 341 341 341 341 341 341 341 340 340 339 338 338 337 337 337 336 336 336 337 337 338 338 338 339 339 340 340 340 340 340 339 338 337 335 334 332 332 331 331 332 333 335 337 338 339 339 339 338 337 336 336 335 335 334 334 332 330 328
339 339 340 341 341 342 343 344 345 346 347 348 349 349 349 349 348 347 346 345 343 341 340 339 339 339 340 341 342 342 342 342 342 342 341 341 341 340 340 339 338 338 338 338 338 338 338 339 339 339 340 340 340 341 341 341 341 341 340 338 336 335 333 332 332 332 332 333 335 337 339 340 341 341 340 340 339 339 340 341 341 341 340 338 336 334
339 340 341 341 342 343 343 344 345 346 347 348 349 349 350 349 349 347 346 345 343 341 340 339 339 340 341 341 342 342 342 342 342 342 342 342 342 341 341 340 340 339 339 339 340 340 340 340 340 340 340 341 341 342 342 342 342 341 339 338 336 334 333 332 332 332 333 335 338 340 341 342 343 343 342 342 343 344 346 347 348 348 346 344 342 341
339 340 341 342 342 343 344 345 346 347 348 349 349 350 350 349 349 347 346 344 343 341 339 339 339 340 341 342 342 342 342 343 343 343 343 342 342 342 341 341 341 340 340 341 341 341 341 341 341 341 341 341 341 342 343 342 342 341 339 337 336 334 333 332 332 333 335 337 339 342 343 345 345 345 345 346 348 350 353 354 355 354 353 350 348 347
340 341 341 342 343 343 344 345 346 347 348 349 349 350 350 349 348 347 346 344 342 341 340 339 340 340 341 342 342 343 343 343 343 343 343 343 343 343 342 342 342 342 342 342 342 342 341 341 341 340 341 341 341 342 343 342 341 340 338 337 336 335 334 334 334 335 336 339 341 343 345 347 348 348 349 351 353 356 358 360 360 359 357 355 354 353
340 341 342 342 343 344 345 346 347 348 349 349 350 350 350 349 348 347 346 344 342 341 340 339 340 340 341 342 343 343 343 343 344 344 344 344 344 343 343 343 343 343 343 343 343 342 341 341 340 340 340 341 341 341 342 341 341 339 338 338 337 337 336 336 336 337 338 340 343 345 347 349 350 351 353 355 358 1 2 3 2 1 360 358 357 357
341 341 342 343 343 344 345 346 347 348 349 349 350 350 349 349 348 347 346 344 342 341 340 340 340 341 342 342 343 343 344 344 344 344 344 344 344 344 344 344 345 345 344 344 343 342 342 341 340 340 340 340 340 341 341 341 340 339 339 338 339 339 339 339 339 339 340 342 344 346 348 350 352 354 356 359 1 3 4 4 3 2 1 360 359 359
341 342 342 343 344 345 345 347 348 348 349 349 350 350 349 349 348 347 345 344 342 341 340 340 340 341 342 343 343 344 344 344 344 345 345 345 345 345 345 345 345 345 345 344 344 343 342 341 340 340 339 340 340 340 340 340 340 339 340 340 340 341 341 341 341 341 342 343 345 348 350 352 354 356 358 1 3 4 5 4 3 2 1 0 360 0
Height
5674 5671 5669 5666 5663 5660 5657 5654 5652 5649 5645 5641 5638 5635 5632 5628 5625 5621 5618 5614 5610 5606 5602 5598 5593 5589 5585 5581 5576 5572 5567 5561 5556 5550 5544 5538 5532 5526 5520 5513 5507 5501 5495 5489 5484 5479 5475 5470 5466 5462 5458 5454 5450 5446 5442 5438 5435 5431 5427 5424 5420 5417 5415 5412 5410 5407 5405 5403 5401 5399 5397 5395 5393 5392 5390 5388 5386 5385 5383 5382 5380 5379 5377 5376 5374 5373
5671 5668 5665 5663 5660 5657 5654 5650 5647 5645 5642 5639 5635 5632 5628 5625 5621 5617 5614 5610 5606 5602 5598 5594 5589 5585 5580 5576 5571 5567 5562 5556 5550 5544 5538 5532 5526 5520 5513 5507 5501 5495 5490 5484 5479 5475 5470 5466 5462 5458 5454 5450 5446 5442 5438 5434 5430 5427 5424 5420 5417 5415 5412 5409 5407 5405 5402 5400 5399 5397 5395 5393 5392 5390 5389 5387 5385 5384 5382 5380 5379 5377 5376 5375 5373 5371
5669 5665 5662 5660 5657 5655 5651 5648 5644 5641 5639 5636 5632 5629 5625 5621 5618 5614 5610 5606 5602 5597 5594 5590 5585 5580 5575 5571 5566 5562 5557 5551 5545 5539 5532 5526 5520 5514 5508 5501 5495 5490 5485 5480 5475 5470 5466 5462 5458 5454 5450 5446 5442 5438 5434 5431 5427 5424 5420 5417 5415 5412 5409 5407 5405 5403 5401 5399 5397 5396 5394 5392 5390 5389 5388 5386 5385 5383 5381 5380 5378 5377 5375 5374 5372 5370
5666 5663 5660 5657 5654 5651 5649 5645 5642 5639 5635 5633 5629 5625 5621 5618 5614 5610 5606 5603 5598 5594 5589 5585 5581 5576 5571 5566 5561 5556 5551 5546 5540 5533 5527 5520 5514 5508 5502 5496 5490 5485 5480 5475 5471 5467 5463 5459 5455 5450 5446 5442 5439 5435 5431 5428 5424 5421 5418 5415 5412 5410 5408 5405 5403 5402 5400 5398 5396 5395 5393 5392 5390 5389 5387 5385 5384 5382 5381 5380 5378 5376 5375 5373 5371 5370
5664 5661 5657 5654 5651 5648 5645 5642 5639 5636 5632 5629 5626 5623 5619 5615 5610 5606 5602 5598 5594 5590 5585 5581 5576 5572 5567 5562 5557 5551 5546 5540 5534 5528 5521 5515 5508 5502 5496 5491 5485 5480 5476 5471 5467 5463 5459 5455 5451 5447 5443 5439 5435 5432 5428 5425 5422 5419 5416 5413 5410 5408 5406 5404 5403 5401 5399 5398 5396 5395 5393 5391 5390 5388 5387 5385 5384 5382 5380 5379 5377 5375 5374 5372 5370 5369
5660 5658 5655 5652 5649 5646 5643 5640 5636 5633 5630 5626 5622 5619 5616 5612 5608 5604 5599 5595 5590 5585 5580 5576 5572 5568 5563 5558 5553 5547 5541 5535 5529 5522 5515 5509 5503 5497 5491 5486 5481 5476 5472 5468 5464 5460 5455 5451 5448 5444 5440 5436 5433 5429 5426 5423 5420 5417 5414 5412 5410 5407 5405 5404 5402 5400 5399 5397 5396 5395 5393 5391 5390 5388 5386 5385 5383 5381 5380 5378 5376 5375 5373 5371 5369 5368
5657 5655 5652 5649 5646 5643 5640 5637 5634 5631 5627 5623 5619 5615 5612 5608 5604 5600 5597 5592 5588 5582 5576 5571 5566 5562 5558 5554 5549 5543 5537 5530 5523 5517 5510 5504 5498 5492 5487 5482 5477 5473 5469 5465 5460 5456 5452 5449 5445 5441 5437 5434 5430 5427 5424 5421 5418 5415 5413 5411 5409 5407 5405 5403 5402 5400 5399 5397 5396 5394 5393 5391 5390 5388 5386 5385 5383 5381 5380 5378 5376 5374 5372 5370 5369 5367
5655 5652 5649 5646 5643 5640 5636 5633 5631 5628 5625 5621 5617 5613 5608 5604 5600 5596 5593 5589 5585 5580 5575 5568 5562 5556 5552 5548 5543 5538 5531 5525 5518 5512 5505 5499 5493 5487 5482 5478 5473 5469 5465 5461 5457 5454 5450 5446 5442 5439 5435 5432 5429 5425 5422 5420 5417 5415 5412 5410 5408 5406 5405 5403 5402 5400 5399 5397 5395 5394 5392 5391 5389 5387 5386 5384 5382 5381 5379 5377 5375 5373 5371 5370 5368 5366
5652 5649 5646 5644 5641 5638 5634 5630 5626 5624 5621 5618 5614 5610 5606 5601 5596 5591 5587 5584 5581 5577 5573 5567 5560 5553 5546 5541 5536 5532 5526 5520 5513 5507 5501 5495 5490 5484 5479 5475 5470 5466 5462 5458 5455 5451 5447 5443 5440 5437 5433 5430 5427 5424 5421 5419 5416 5414 5412 5410 5408 5406 5405 5403 5401 5400 5399 5397 5395 5394 5392 5390 5389 5387 5385 5384 5382 5380 5378 5376 5374 5372 5370 5368 5366 5365
5650 5647 5644 5640 5638 5635 5632 5628 5624 5620 5617 5614 5610 5607 5605 5601 5596 5590 5584 5579 5575 5571 5568 5563 5558 5552 5544 5536 5530 5524 5519 5513 5507 5501 5495 5490 5485 5481 5476 5472 5468 5464 5460 5456 5452 5449 5445 5441 5438 5435 5432 5429 5426 5423 5420 5418 5415 5413 5411 5410 5408 5406 5405 5403 5401 5400 5398 5397 5395 5393 5392 5390 5388 5386 5385 5383 5381 5379 5377 5375 5373 5371 5369 5367 5365 5363
5647 5644 5641 5638 5635 5631 5628 5625 5621 5618 5615 5611 5607 5603 5600 5597 5594 5590 5584 5577 5572 5567 5561 5556 5552 5548 5543 5535 5527 5519 5513 5507 5502 5496 5490 5484 5480 5476 5472 5468 5465 5461 5458 5454 5450 5446 5443 5440 5436 5433 5430 5427 5425 5422 5420 5417 5415 5413 5411 5409 5408 5406 5404 5403 5401 5400 5398 5396 5395 5393 5391 5389 5387 5385 5384 5382 5380 5378 5376 5374 5372 5370 5368 5365 5363 5361
5644 5641 5638 5635 5632 5628 5625 5621 5618 5615 5612 5609 5605 5600 5595 5592 5589 5586 5581 5576 5570 5565 5558 5551 5545 5541 5537 5532 5525 5517 5510 5503 5497 5492 5487 5481 5476 5472 5468 5464 5461 5458 5455 5451 5447 5444 5441 5438 5435 5432 5429 5426 5424 5421 5419 5417 5415 5413 5411 5409 5407 5406 5404 5402 5401 5399 5397 5395 5394 5392 5390 5388 5386 5385 5382 5380 5379 5376 5375 5372 5370 5368 5366 5364 5362 5360
5641 5639 5636 5633 5630 5626 5622 5619 5615 5612 5609 5606 5602 5598 5593 5589 5585 5581 5577 5572 5567 5562 5556 5549 5542 5535 5530 5525 5520 5513 5506 5499 5493 5488 5484 5479 5475 5471 5467 5462 5458 5455 5452 5449 5445 5442 5440 5436 5434 5431 5428 5426 5423 5421 5419 5416 5415 5413 5411 5409 5407 5405 5404 5402 5400 5398 5397 5395 5393 5391 5389 5387 5385 5383 5381 5379 5377 5375 5373 5371 5369 5367 5365 5363 5361 5359
5639 5636 5633 5630 5627 5623 5620 5616 5612 5609 5605 5603 5600 5596 5591 5587 5582 5578 5573 5568 5562 5556 5550 5544 5537 5530 5525 5520 5515 5509 5502 5495 5489 5484 5480 5475 5472 5469 5465 5461 5456 5453 5450 5447 5444 5441 5438 5435 5433 5430 5427 5425 5423 5420 5418 5416 5414 5412 5410 5409 5407 5405 5403 5401 5400 5398 5396 5394 5392 5390 5388 5386 5384 5382 5380 5378 5376 5374 5371 5370 5368 5365 5364 5361 5360 5357
5636 5634 5630 5627 5624 5621 5617 5614 5610 5606 5602 5599 5596 5592 5588 5583 5578 5574 5570 5564 5558 5553 5547 5540 5532 5524 5517 5513 5509 5505 5500 5493 5486 5482 5478 5473 5469 5466 5463 5459 5455 5451 5448 5446 5443 5440 5437 5435 5432 5429 5427 5424 5422 5420 5418 5416 5414 5412 5410 5408 5406 5405 5403 5401 5399 5397 5395 5393 5391 5389 5387 5385 5383 5381 5379 5377 5375 5372 5370 5368 5366 5364 5362 5360 5358 5356
5634 5631 5628 5625 5622 5618 5615 5611 5608 5604 5600 5596 5592 5589 5585 5580 5575 5570 5565 5560 5555 5549 5543 5537 5530 5522 5514 5506 5501 5498 5495 5490 5484 5479 5476 5472 5467 5463 5461 5458 5453 5450 5446 5444 5441 5439 5436 5433 5431 5429 5426 5424 5421 5419 5417 5415 5413 5411 5410 5408 5406 5404 5402 5400 5398 5395 5394 5391 5390 5388 5385 5384 5382 5380 5377 5375 5373 5371 5369 5367 5365 5362 5360 5358 5356 5354
5632 5629 5626 5623 5620 5616 5613 5609 5605 5601 5597 5593 5589 5585 5581 5577 5572 5567 5562 5557 5551 5545 5539 5534 5528 5522 5515 5506 5498 5493 5490 5486 5481 5477 5473 5470 5465 5461 5459 5456 5452 5449 5446 5443 5440 5438 5435 5433 5430 5428 5425 5423 5421 5419 5417 5415 5413 5411 5409 5407 5405 5403 5401 5399 5397 5395 5392 5390 5388 5386 5384 5382 5380 5378 5376 5374 5372 5370 5367 5365 5363 5361 5359 5356 5354 5352
5630 5627 5624 5621 5617 5614 5610 5606 5602 5598 5594 5590 5585 5581 5576 5572 5568 5563 5558 5553 5547 5542 5536 5530 5523 5518 5512 5506 5498 5492 5488 5484 5480 5475 5471 5468 5463 5459 5456 5453 5450 5447 5445 5442 5440 5437 5434 5432 5430 5427 5425 5422 5420 5418 5416 5414 5412 5410 5408 5406 5404 5402 5400 5398 5395 5394 5391 5389 5387 5385 5383 5381 5379 5377 5375 5372 5370 5368 5365 5363 5361 5359 5357 5354 5352 5350
5627 5625 5622 5619 5615 5611 5607 5604 5600 5596 5591 5587 5582 5577 5573 5568 5563 5558 5553 5548 5543 5537 5532 5526 5520 5514 5508 5502 5496 5490 5485 5481 5477 5473 5469 5466 5462 5458 5455 5452 5449 5446 5443 5441 5439 5436 5433 5431 5429 5426 5424 5422 5420 5417 5415 5413 5411 5409 5407 5405 5403 5401 5399 5397 5395 5392 5390 5388 5386 5384 5382 5380 5377 5375 5373 5371 5368 5366 5364 5361 5359 5357 5355 5352 5350 5348
5625 5622 5619 5617 5613 5609 5605 5600 5596 5593 5589 5584 5579 5574 5569 5564 5559 5554 5549 5544 5539 5533 5528 5522 5517 5510 5505 5499 5493 5487 5482 5478 5474 5470 5466 5463 5460 5457 5454 5451 5448 5445 5442 5440 5437 5435 5433 5430 5428 5425 5423 5421 5419 5417 5415 5413 5410 5409 5406 5404 5402 5400 5398 5395 5393 5391 5389 5387 5385 5383 5380 5378 5376 5374 5371 5369 5366 5364 5362 5360 5357 5355 5352 5350 5348 5345
5622 5619 5616 5614 5610 5607 5602 5598 5593 5589 5585 5580 5575 5570 5565 5560 5555 5549 5544 5539 5534 5528 5523 5517 5512 5507 5501 5496 5490 5485 5480 5477 5473 5468 5464 5460 5457 5454 5452 5449 5447 5444 5441 5439 5436 5434 5431 5429 5427 5425 5422 5420 5418 5416 5414 5412 5410 5408 5405 5403 5401 5399 5396 5394 5392 5390 5388 5385 5383 5381 5379 5376 5374 5372 5370 5367 5365 5362 5360 5357 5355 5352 5350 5347 5345 5342
5620 5617 5613 5610 5607 5604 5600 5595 5590 5585 5581 5577 5572 5567 5562 5557 5551 5545 5540 5535 5529 5524 5518 5513 5508 5503 5499 5494 5488 5483 5479 5475 5471 5468 5464 5459 5455 5452 5450 5447 5445 5443 5440 5438 5435 5432 5430 5428 5426 5423 5421 5419 5417 5415 5413 5411 5409 5407 5405 5402 5400 5398 5395 5393 5391 5389 5386 5384 5381 5379 5377 5375 5372 5370 5367 5365 5363 5360 5358 5355 5353 5350 5347 5345 5342 5340
5618 5615 5611 5607 5604 5601 5597 5592 5587 5582 5577 5573 5569 5564 5559 5554 5550 5544 5539 5533 5527 5521 5515 5510 5505 5499 5494 5490 5485 5480 5476 5472 5469 5465 5461 5458 5455 5451 5449 5446 5444 5441 5439 5437 5434 5431 5429 5427 5425 5422 5420 5418 5416 5414 5412 5410 5408 5405 5403 5401 5399 5396 5394 5391 5389 5387 5385 5382 5380 5377 5375 5372 5370 5368 5365 5363 5361 5358 5356 5353 5350 5348 5345 5342 5340 5337
5615 5612 5608 5605 5601 5597 5593 5589 5584 5579 5574 5569 5564 5560 5555 5550 5545 5540 5535 5530 5525 5519 5513 5507 5501 5496 5490 5485 5481 5476 5473 5470 5467 5463 5460 5455 5453 5450 5448 5445 5443 5440 5437 5435 5433 5431 5428 5426 5424 5422 5420 5417 5415 5413 5411 5409 5406 5404 5402 5400 5397 5395 5392 5390 5388 5385 5383 5380 5377 5375 5372 5370 5367 5365 5363 5360 5358 5356 5354 5351 5348 5345 5343 5340 5336 5334
5613 5609 5605 5602 5598 5594 5590 5585 5581 5575 5570 5565 5561 5556 5551 5545 5540 5535 5531 5526 5520 5515 5508 5503 5497 5492 5488 5484 5479 5475 5470 5467 5464 5462 5459 5454 5451 5448 5446 5444 5442 5439 5436 5434 5432 5430 5427 5425 5423 5421 5419 5416 5414 5412 5410 5408 5405 5403 5400 5398 5396 5393 5391 5389 5386 5383 5381 5378 5375 5372 5370 5367 5365 5362 5360 5358 5356 5354 5351 5349 5346 5343 5340 5337 5334 5331
5610 5607 5603 5599 5595 5591 5586 5582 5577 5573 5568 5563 5558 5553 5548 5543 5537 5532 5526 5522 5516 5511 5505 5499 5493 5488 5483 5480 5476 5472 5468 5465 5461 5459 5457 5453 5450 5447 5444 5442 5440 5438 5435 5433 5431 5428 5426 5424 5422 5420 5418 5415 5413 5411 5409 5406 5404 5401 5399 5397 5394 5392 5389 5387 5384 5381 5379 5376 5373 5370 5367 5365 5362 5360 5357 5355 5353 5351 5349 5347 5344 5341 5338 5335 5331 5329
5607 5604 5600 5596 5592 5588 5583 5579 5574 5570 5565 5560 5555 5550 5545 5540 5534 5528 5522 5517 5512 5507 5502 5496 5491 5485 5480 5475 5472 5470 5466 5463 5459 5456 5454 5451 5449 5446 5443 5441 5439 5437 5435 5432 5430 5428 5425 5423 5421 5419 5416 5414 5412 5410 5407 5405 5402 5400 5398 5395 5393 5390 5388 5385 5382 5380 5377 5374 5371 5368 5365 5362 5360 5357 5355 5353 5351 5349 5347 5344 5341 5339 5335 5332 5329 5326
5605 5601 5597 5593 5589 5585 5580 5575 5571 5566 5561 5557 5551 5546 5541 5536 5531 5525 5519 5513 5508 5503 5498 5493 5488 5484 5479 5474 5471 5468 5466 5462 5458 5455 5452 5449 5447 5445 5443 5440 5438 5436 5434 5431 5429 5427 5425 5423 5420 5418 5415 5413 5411 5408 5406 5404 5401 5399 5396 5393 5391 5388 5385 5383 5380 5377 5375 5372 5369 5366 5363 5360 5357 5355 5352 5350 5348 5346 5344 5342 5339 5336 5333 5330 5327 5324
5602 5599 5595 5590 5586 5582 5577 5573 5568 5563 5559 5554 5549 5544 5538 5533 5528 5522 5516 5510 5505 5500 5494 5489 5485 5481 5476 5472 5468 5465 5463 5460 5457 5454 5450 5448 5445 5443 5441 5439 5437 5435 5433 5430 5427 5425 5424 5422 5419 5417 5414 5412 5410 5407 5405 5402 5400 5397 5395 5392 5389 5386 5384 5381 5378 5375 5372 5369 5366 5364 5360 5358 5355 5352 5350 5347 5345 5343 5341 5339 5336 5334 5330 5327 5325 5322
5599 5595 5591 5587 5583 5579 5575 5570 5565 5561 5556 5551 5546 5541 5535 5530 5525 5519 5513 5507 5502 5496 5491 5486 5482 5478 5475 5470 5466 5462 5459 5456 5455 5452 5449 5446 5444 5441 5440 5437 5435 5434 5431 5429 5425 5423 5421 5419 5417 5415 5413 5410 5408 5406 5403 5401 5398 5395 5393 5390 5387 5384 5381 5379 5376 5373 5370 5367 5364 5361 5358 5355 5352 5350 5347 5345 5343 5341 5339 5336 5334 5331 5328 5325 5323 5320
5597 5593 5589 5585 5580 5576 5572 5568 5563 5559 5554 5549 5544 5539 5534 5528 5522 5516 5510 5504 5499 5493 5488 5483 5479 5476 5473 5470 5467 5463 5458 5455 5452 5450 5448 5445 5443 5440 5439 5436 5434 5432 5430 5428 5425 5422 5420 5417 5415 5413 5411 5409 5406 5404 5401 5399 5396 5394 5391 5388 5385 5383 5380 5377 5374 5371 5368 5365 5362 5359 5355 5353 5350 5347 5344 5342 5340 5338 5336 5334 5331 5329 5326 5323 5321 5318
5595 5591 5587 5582 5578 5574 5570 5565 5561 5556 5552 5547 5542 5537 5531 5526 5520 5514 5508 5502 5496 5491 5486 5481 5476 5472 5470 5468 5466 5463 5459 5455 5451 5448 5446 5444 5441 5439 5437 5435 5433 5431 5429 5427 5425 5422 5420 5417 5415 5412 5410 5407 5404 5402 5399 5397 5394 5392 5389 5386 5384 5381 5378 5375 5372 5369 5366 5363 5360 5356 5353 5350 5347 5344 5342 5340 5337 5335 5333 5331 5329 5326 5324 5321 5319 5317
5592 5588 5584 5580 5576 5571 5567 5563 5559 5554 5550 5545 5540 5535 5529 5524 5518 5512 5506 5500 5494 5489 5484 5480 5475 5470 5466 5464 5462 5460 5458 5455 5451 5447 5445 5442 5440 5438 5436 5434 5432 5429 5427 5425 5423 5421 5419 5416 5414 5411 5409 5406 5403 5400 5398 5395 5393 5390 5387 5385 5382 5379 5376 5373 5370 5367 5364 5361 5358 5355 5351 5348 5345 5342 5340 5337 5335 5333 5330 5328 5326 5324 5321 5319 5317 5315
5590 5586 5582 5578 5573 5569 5565 5560 5556 5552 5547 5542 5537 5532 5527 5521 5515 5510 5504 5498 5492 5487 5482 5478 5474 5470 5466 5462 5459 5456 5454 5452 5449 5446 5443 5441 5439 5437 5435 5433 5430 5428 5425 5423 5421 5419 5417 5415 5412 5410 5408 5405 5402 5399 5396 5393 5391 5388 5385 5383 5380 5377 5374 5371 5368 5365 5362 5359 5356 5353 5350 5346 5343 5340 5338 5335 5333 5330 5328 5326 5324 5321 5319 5317 5315 5313
5587 5583 5579 5575 5571 5567 5562 5558 5554 5549 5545 5540 5535 5530 5524 5519 5513 5507 5501 5496 5490 5485 5480 5476 5472 5469 5466 5463 5459 5455 5452 5449 5447 5445 5442 5440 5437 5435 5433 5431 5429 5427 5425 5422 5420 5417 5415 5413 5411 5409 5406 5404 5401 5398 5395 5392 5389 5386 5384 5380 5378 5375 5371 5369 5365 5363 5360 5356 5353 5350 5347 5344 5341 5338 5335 5333 5331 5329 5326 5324 5322 5319 5317 5315 5313 5311
5585 5581 5577 5573 5569 5565 5560 5556 5551 5547 5542 5537 5532 5527 5521 5516 5510 5505 5499 5493 5488 5483 5479 5474 5470 5467 5464 5462 5459 5455 5452 5448 5445 5443 5440 5438 5436 5434 5432 5430 5428 5426 5423 5421 5419 5416 5414 5411 5409 5407 5405 5402 5400 5397 5394 5391 5388 5385 5382 5379 5376 5372 5369 5366 5363 5360 5357 5354 5351 5347 5344 5341 5338 5336 5334 5331 5329 5326 5324 5322 5320 5317 5315 5313 5311 5309
5583 5579 5575 5571 5567 5563 5559 5554 5549 5544 5540 5534 5529 5523 5518 5512 5507 5501 5496 5491 5486 5481 5477 5473 5469 5465 5462 5459 5456 5454 5450 5447 5444 5441 5439 5437 5435 5433 5431 5429 5427 5425 5423 5420 5418 5415 5413 5410 5408 5405 5403 5400 5398 5395 5393 5390 5387 5384 5381 5378 5374 5371 5367 5364 5361 5358 5354 5351 5348 5345 5341 5339 5336 5334 5331 5329 5327 5325 5323 5320 5318 5315 5313 5311 5309 5307
5581 5577 5573 5569 5565 5560 5556 5551 5546 5541 5536 5531 5526 5520 5515 5510 5504 5499 5494 5489 5484 5480 5475 5472 5468 5465 5461 5458 5455 5452 5449 5446 5443 5440 5438 5435 5433 5431 5430 5427 5425 5423 5421 5419 5416 5414 5411 5409 5406 5404 5401 5399 5396 5394 5391 5389 5386 5384 5381 5377 5374 5370 5366 5362 5359 5355 5352 5348 5345 5342 5339 5336 5334 5332 5330 5328 5325 5324 5321 5319 5316 5314 5312 5309 5307 5305
5579 5575 5571 5567 5563 5558 5554 5549 5544 5538 5533 5528 5522 5517 5512 5507 5501 5496 5492 5487 5483 5479 5475 5471 5468 5465 5461 5458 5454 5451 5448 5445 5442 5439 5437 5434 5432 5430 5428 5426 5424 5422 5419 5417 5415 5413 5410 5407 5405 5402 5400 5398 5395 5393 5390 5387 5385 5382 5380 5376 5372 5368 5364 5360 5356 5352 5349 5346 5343 5340 5337 5334 5332 5330 5328 5326 5324 5322 5320 5318 5315 5313 5310 5308 5305 5304
5577 5573 5569 5565 5560 5556 5551 5546 5541 5536 5530 5525 5519 5514 5508 5503 5498 5492 5488 5484 5480 5476 5473 5470 5466 5464 5461 5458 5455 5451 5447 5444 5441 5438 5436 5433 5431 5429 5427 5425 5423 5420 5418 5415 5413 5411 5409 5406 5404 5401 5399 5396 5394 5391 5389 5386 5383 5380 5377 5374 5370 5366 5361 5357 5353 5350 5347 5344 5340 5338 5335 5333 5330 5328 5326 5324 5322 5320 5318 5316 5314 5311 5309 5306 5304 5302
5575 5570 5566 5562 5557 5552 5548 5543 5538 5533 5528 5522 5517 5511 5505 5500 5495 5489 5484 5480 5476 5472 5470 5467 5464 5461 5458 5455 5453 5450 5447 5443 5440 5437 5435 5432 5430 5428 5426 5424 5421 5419 5417 5415 5412 5410 5407 5405 5402 5400 5397 5395 5392 5390 5387 5384 5381 5377 5374 5370 5367 5363 5359 5355 5351 5348 5345 5342 5339 5336 5334 5331 5329 5327 5325 5323 5320 5318 5316 5314 5311 5309 5307 5305 5303 5301
5572 5568 5564 5559 5555 5550 5545 5540 5535 5530 5525 5520 5514 5509 5503 5498 5493 5487 5483 5478 5474 5470 5467 5464 5462 5459 5456 5453 5450 5448 5445 5442 5440 5436 5434 5431 5429 5427 5425 5423 5420 5418 5416 5414 5411 5409 5406 5404 5401 5398 5396 5393 5390 5388 5385 5382 5378 5375 5370 5367 5364 5361 5357 5354 5350 5346 5343 5340 5337 5335 5333 5330 5328 5326 5323 5321 5319 5316 5314 5311 5309 5306 5305 5302 5301 5299
5570 5565 5561 5557 5552 5548 5543 5539 5534 5528 5523 5517 5512 5506 5501 5496 5491 5486 5481 5477 5473 5469 5466 5463 5460 5458 5455 5453 5450 5446 5444 5441 5438 5436 5433 5430 5428 5426 5424 5422 5420 5417 5415 5413 5410 5408 5405 5402 5400 5397 5394 5391 5389 5385 5382 5379 5375 5372 5368 5365 5361 5358 5355 5352 5349 5345 5342 5339 5336 5334 5332 5330 5327 5324 5322 5319 5316 5314 5311 5309 5306 5304 5302 5300 5299 5297
5567 5563 5559 5555 5550 5546 5541 5536 5531 5526 5521 5516 5510 5505 5499 5494 5489 5484 5480 5475 5471 5467 5465 5461 5458 5455 5453 5451 5448 5445 5442 5439 5437 5434 5432 5430 5427 5425 5423 5420 5418 5416 5414 5411 5409 5406 5403 5401 5398 5395 5392 5389 5386 5383 5380 5377 5373 5370 5366 5363 5360 5356 5353 5350 5347 5344 5341 5338 5336 5333 5331 5328 5325 5323 5320 5317 5315 5312 5310 5307 5305 5302 5300 5299 5297 5296
5565 5561 5557 5553 5548 5544 5539 5534 5529 5524 5519 5514 5508 5503 5498 5492 5487 5482 5478 5474 5470 5466 5463 5460 5458 5455 5451 5449 5446 5444 5441 5438 5435 5433 5430 5428 5426 5424 5421 5419 5416 5414 5412 5409 5407 5404 5401 5399 5396 5393 5390 5387 5384 5381 5378 5374 5371 5368 5365 5362 5359 5355 5352 5349 5345 5343 5340 5337 5335 5332 5330 5327 5324 5321 5319 5316 5313 5310 5308 5305 5303 5301 5300 5298 5296 5295
5563 5559 5555 5550 5546 5541 5537 5532 5527 5522 5517 5512 5506 5501 5496 5491 5485 5481 5476 5473 5469 5465 5462 5459 5457 5454 5451 5448 5445 5442 5439 5436 5434 5431 5429 5426 5424 5422 5420 5417 5415 5412 5410 5407 5405 5402 5399 5396 5394 5391 5388 5385 5382 5379 5376 5373 5370 5367 5364 5361 5358 5355 5351 5348 5345 5341 5339 5336 5334 5332 5329 5326 5324 5320 5318 5315 5312 5310 5307 5305 5303 5301 5299 5297 5296 5295
5561 5557 5552 5548 5544 5539 5535 5530 5525 5520 5515 5510 5504 5499 5494 5490 5484 5479 5475 5471 5467 5464 5461 5458 5455 5453 5450 5447 5444 5441 5438 5435 5433 5430 5428 5425 5423 5420 5418 5415 5413 5410 5408 5405 5403 5400 5397 5394 5391 5389 5386 5383 5380 5378 5375 5372 5369 5366 5363 5360 5358 5354 5351 5347 5344 5341 5338 5335 5333 5331 5328 5326 5323 5320 5317 5314 5312 5309 5307 5305 5302 5301 5299 5298 5296 5295
5559 5555 5550 5546 5541 5537 5532 5527 5522 5517 5512 5507 5502 5497 5492 5488 5483 5479 5474 5470 5466 5463 5460 5457 5454 5452 5449 5446 5443 5440 5438 5435 5432 5430 5427 5424 5422 5419 5417 5414 5411 5409 5406 5404 5401 5398 5395 5392 5390 5387 5384 5381 5379 5376 5374 5371 5368 5365 5363 5360 5357 5354 5350 5347 5344 5340 5337 5335 5332 5330 5328 5325 5322 5320 5316 5314 5311 5309 5307 5305 5303 5301 5299 5298 5296 5295
5556 5552 5548 5544 5539 5535 5530 5525 5520 5515 5510 5505 5500 5495 5490 5485 5481 5477 5473 5469 5465 5462 5460 5457 5454 5451 5448 5445 5442 5440 5437 5434 5432 5429 5427 5424 5421 5419 5416 5413 5410 5408 5405 5402 5400 5397 5394 5391 5388 5385 5383 5380 5378 5375 5373 5371 5368 5365 5362 5359 5356 5353 5350 5347 5343 5340 5337 5334 5332 5329 5327 5324 5322 5319 5316 5314 5311 5309 5307 5305 5304 5302 5300 5298 5297 5296
5554 5550 5546 5542 5538 5533 5528 5523 5518 5513 5508 5503 5498 5493 5488 5484 5479 5475 5471 5468 5465 5462 5459 5456 5453 5450 5447 5444 5441 5439 5436 5433 5431 5428 5426 5423 5421 5418 5415 5413 5410 5408 5405 5402 5399 5396 5393 5390 5387 5384 5381 5379 5376 5374 5372 5370 5367 5365 5361 5359 5356 5353 5350 5346 5343 5340 5337 5334 5331 5329 5326 5324 5321 5318 5316 5314 5311 5310 5308 5306 5304 5302 5300 5299 5297 5296
5552 5548 5544 5540 5535 5531 5526 5521 5516 5512 5507 5501 5496 5492 5487 5482 5478 5474 5470 5466 5463 5460 5458 5455 5453 5450 5447 5444 5441 5438 5435 5433 5430 5428 5425 5423 5420 5418 5415 5413 5410 5408 5405 5402 5399 5396 5393 5390 5386 5383 5380 5377 5375 5373 5371 5369 5366 5364 5361 5358 5355 5352 5349 5346 5343 5340 5336 5334 5331 5329 5326 5324 5321 5319 5316 5314 5312 5310 5308 5306 5305 5303 5301 5299 5298 5296